www.pogodaiklimat.ru

Погода и климат >> Архив погоды >> Россия >> Ненецкий АО >> Мыс Микулкин


ПОГОДА на Мысе Микулкин

  • Прогноз погоды на Мысе Микулкин
  • Монитор погоды на Мысе Микулкин

АРХИВ ПОГОДЫ на Мысе Микулкин

Время (UTC), дата Ветер
(напр.,м/с)
 
Видим.   Явления Облачность Т
(С)
Тd
(С)
f
(%)
Тe
(С)
Тes
(С)
Комфортность P
(гПа)
Po
(гПа)
Тmin
(С)
Tmax
(С)
R
(мм)
R24
(мм)
S
(см)
15 13.07 В 3 н/о н/о +7.5 +6.9 96 +4 +4 1010.1 1009.4
18 13.07 З 1 н/о н/о +7.0 +6.9 99 +6 +6 1010.0 1009.3
21 13.07 З 1 н/о н/о +7.1 +7.1 100 +6 +6 1009.7 1008.9
00 14.07 Ю 1 н/о н/о +6.8 +6.8 100 +6 +6 1010.0 1009.3
03 14.07 ЮЗ 5 н/о н/о +7.5 +7.5 100 +3 +3 1010.2 1009.5
06 14.07 ЮЗ 4 н/о н/о +8.2 +7.4 95 +5 +5 1010.6 1009.9
09 14.07 ЮЗ 5 н/о н/о +8.3 +7.1 92 +5 +5 1011.5 1010.8
12 14.07 Ю 3 н/о н/о +8.9 +7.5 91 +6 +6 1011.6 1010.9
15 14.07 В 1 н/о н/о +9.9 +7.5 85 +9 +9 1012.5 1011.8
18 14.07 С 3 н/о н/о +6.6 +6.2 97 +3 +3 1012.3 1011.5
21 14.07 СВ 4 н/о н/о +6.0 +5.7 98 +2 +2 1013.3 1012.5
00 15.07 СВ 4 н/о н/о +6.1 +5.8 98 +2 +2 1013.8 1013.0
03 15.07 С 6 н/о н/о +6.5 +5.6 94 +2 +2 1013.9 1013.2
06 15.07 СВ 7 н/о н/о +5.9 +5.0 94 +1 +1 1014.7 1014.0
09 15.07 СВ 8 н/о н/о +7.2 +5.8 91 +2 +2 1014.8 1014.1
12 15.07 СВ 8 н/о н/о +5.7 +5.3 97 -0 -0 1015.1 1014.4
15 15.07 С 9
{13}
н/о н/о +6.0 +5.9 99 -0 -0 1014.8 1014.0
18 15.07 С 9 н/о н/о +6.0 +5.7 98 0 0 1014.3 1013.5
21 15.07 С 6 н/о н/о +6.2 +6.2 100 +1 +1 1013.9 1013.1
00 16.07 С 4 н/о н/о +7.2 +6.8 97 +3 +3 1013.6 1012.9
03 16.07 СВ 7 н/о н/о +7.9 +6.8 93 +3 +3 1013.4 1012.7
06 16.07 СВ 8 н/о н/о +8.0 +6.8 92 +3 +3 1012.3 1011.5
09 16.07 СВ 8 н/о н/о +7.4 +6.0 91 +2 +2 1011.8 1011.0
12 16.07 СВ 9 н/о н/о +6.4 +6.1 98 +1 +1 1010.2 1009.5
15 16.07 С 7 н/о н/о +7.1 +6.8 98 +2 +2 1008.5 1007.7
18 16.07 СЗ 5 н/о н/о +6.8 +6.7 99 +2 +2 1007.4 1006.7
21 16.07 З 7 н/о н/о +6.3 +5.7 96 +1 +1 1006.5 1005.8
00 17.07 З 10
{13}
н/о н/о +6.3 +5.9 97 0 0 1007.3 1006.5
03 17.07 ЮЗ 8
{13}
н/о н/о +7.2 +6.9 98 +2 +2 1009.3 1008.5
06 17.07 ЮЗ 6 н/о н/о +8.6 +7.5 93 +5 +5 1011.5 1010.8
09 17.07 Ю 8 н/о н/о +10.0 +8.6 91 +6 +6 1013.5 1012.8
12 17.07 Ю 6 н/о н/о +9.2 +7.3 88 +5 +5 1015.7 1015.0
15 17.07 ЮЗ 5 н/о н/о +8.8 +7.4 91 +5 +5 1017.4 1016.6
18 17.07 ЮЗ 4 н/о н/о +8.4 +7.5 94 +5 +5 1018.6 1017.9
21 17.07 СЗ 2 н/о н/о +5.7 +5.4 98 +3 +3 1019.5 1018.7
00 18.07 СВ 2 н/о н/о +4.3 +4.2 99 +1 +1 1021.0 1020.3
03 18.07 В 1 н/о н/о +8.8 +7.6 92 +8 +8 1021.6 1020.8
06 18.07 В 3 н/о н/о +11.3 +7.6 78 +10 +10 1022.0 1021.3
09 18.07 СВ 5 н/о н/о +11.6 +7.7 77 +9 +9 1022.5 1021.7
12 18.07 СВ 6 н/о н/о +11.4 +6.5 72 +9 +9 1022.2 1021.5
15 18.07 СВ 6 н/о н/о +10.3 +5.5 72 +7 +7 1022.3 1021.5
18 18.07 С 5 н/о н/о +8.2 +5.0 80 +5 +5 1021.6 1020.9
21 18.07 С 5 н/о н/о +6.1 +5.2 94 +2 +2 1021.3 1020.6
00 19.07 С 6 н/о н/о +7.0 +5.9 93 +2 +2 1020.4 1019.7
03 19.07 С 9 н/о н/о +8.4 +5.9 84 +4 +4 1018.9 1018.1
06 19.07 С 11
{14}
н/о н/о +8.7 +6.5 86 +3 +3 1017.7 1016.9
09 19.07 С 11
{15}
н/о н/о +7.2 +6.5 95 +1 +1 1016.3 1015.6
12 19.07 С 10
{15}
н/о н/о +6.6 +6.0 96 +1 +1 1015.2 1014.4
15 19.07 С 9
{14}
н/о н/о +7.2 +6.6 96 +2 +2 1013.6 1012.9
18 19.07 С 9
{13}
н/о н/о +6.9 +6.5 97 +1 +1 1012.4 1011.7
21 19.07 С 9
{13}
н/о н/о +6.4 +5.8 96 +1 +1 1011.5 1010.8
00 20.07 С 9 н/о н/о +6.4 +5.7 95 +1 +1 1010.6 1009.9
03 20.07 С 9
{13}
н/о н/о +6.9 +6.0 94 +1 +1 1010.3 1009.5

 

Местоположение метеостанции Мыс Микулкин (Ненецкий АО, Россия): широта 67.80 долгота 46.66 высота над уровнем моря 6 м.

В архиве по умолчанию представлена погода на Мысе Микулкин за последнюю неделю. Архивные данные за месяц целиком и за предыдущие месяцы, начиная с января 2011 года, Вы можете получить, выбрав интересующий диапазон дат из раскрывающегося списка и нажав кнопку "Ввод!".


*Определитесь, кто Вы:
робот инопланетянин человек

Внимание! Время в таблицах - всемирное. Для получения местного времени необходимо прибавить поправку, которая равна 3 ч.

Смотрите также архив погоды в соседних городах и на ближайших метеорологических станциях:

Погода в Индиге (Ненецкий АО, Россия) (86 км)
Погода в Шойне (Ненецкий АО, Россия) (105 км)
Погода в Нижней Пеше (Ненецкий АО, Россия) (126 км)
Погода в Бугрино (Ненецкий АО, Россия) (156 км)
Погода в Неси (Ненецкий АО, Россия) (158 км)
Погода в Канином Носе (Ненецкий АО, Россия) (168 км)
Погода в Сенгейском Шаре (Ненецкий АО, Россия) (205 км)
Погода в Коткино (Ненецкий АО, Россия) (209 км)
Погода на Колгуевом Острове (Ненецкий АО, Россия) (216 км)
Погода на Моржовец Острове (Архангельская область, Россия) (216 км)

Пояснения к столбцам:

Ветер - указаны скорость ветра в м/с - средняя за 10 мин, порывы в срок и между сроками (в фигурных скобках) и направление, откуда дует ветер: С - северный, СВ - северо-восточный, В - восточный, ЮВ - юго-восточный, Ю - южный, ЮЗ - юго-западный, З - западный, СЗ - северо-западный.
Видимость - горизонтальная дальность видимости в метрах или километрах. При видимости от 1 до 10 км при отсутствии осадков обычно наблюдается дымка, при ухудшении видимости до 1 км и менее - туман. В сухую погоду видимость может ухудшаться дымом, пылью или мглою.
Явления - указаны атмосферные явления, наблюдавшиеся в срок или в последний час перед сроком; фигурными скобками обозначены явления, наблюдавшиеся между сроками (за 1-3 часа до срока); квадратными скобками обозначены град или гололедные отложения с указанием их диаметра в мм.
Облачность - указаны через наклонную черту общая и нижняя облачность в баллах и высота нижней границы облаков в метрах; квадратными скобками обозначены формы облаков: Ci - перистые, Cs - перисто-слоистые, Cc - перисто-кучевые, Ac - высококучевые, As - высокослоистые, Sc - слоисто-кучевые, Ns - слоисто-дождевые, Cu - кучевые, Cb - кучево-дождевые. Подробнее классификацию облаков см. в Атласе облаков (PDF).
T - Температура воздуха - температура, измеренная на высоте 2 м над землей.
Td - Температура точки росы - температура, при понижении до которой содержащийся в воздухе водяной пар достигнет насыщения.
f - Относительная влажность воздуха - влажноcть воздуха, измеренная на высоте 2 м над землей.
Te - Эффективная температура - температура, которую ощущает одетый по сезону человек в тени. Характеристика душности погоды. При расчете учитывается влияние влажности воздуха и скорости ветра на теплоощущения человека.
Tes - Эффективная температура на солнце - температура, которую ощущает человек, с поправкой на солнечный нагрев. Характеристика знойности погоды. Зависит от высоты солнца над горизонтом, облачности и скорости ветра. Ночью, в пасмурную погоду, а также при ветре 12 м/с и более поправка равна нулю.
P - Атмосферное давление - приведенное к уровню моря атмосферное давление.
Po - Атмосферное давление - измеренное на уровне метеостанции атмосферное давление.
Tmin - Минимальная температура - минимум температуры воздуха на высоте 2 м над землей.
Tmax - Максимальная температура - максимум температуры воздуха на высоте 2 м над землей.
R - Количество осадков - Количество выпавших осадков за период времени, мм. При наведении курсора мыши на число - период времени, за который выпало указанное количество осадков.
R24 - Количество осадков - Количество выпавших осадков за 24 часа, мм.
S - Снежный покров - Высота снежного покрова, см. При наведении курсора мыши на число - состояние снежного покрова и степень покрытия местности в баллах.